EHI
0 0 0 0 0 0 0 0 0 0 0 0 0 0 0 0 0 0 0 0 0 0 0 0 0 0 0 1 0 0 0 0 0 0 0 0 0 0 0 0 0 0 0
0 0 0 0 0 0 0 0 0 0 0 0 0 0 0 0 0 0 0 0 0 0 0 0 0 0 0 1 1 0 0 0 0 0 0 0 0 0 0 0 0 0 0
0 0 0 0 0 0 0 0 0 0 0 0 0 0 0 0 0 0 0 0 0 0 0 0 0 0 0 1 1 1 0 0 0 0 0 0 0 0 0 0 0 0 0
0 0 0 0 0 0 0 0 0 0 0 0 0 0 0 0 0 0 0 0 0 0 0 0 0 0 0 1 1 0 0 0 0 0 0 0 0 0 0 0 0 0 0
0 0 0 0 0 0 0 0 0 0 0 0 0 0 0 0 0 0 0 0 0 0 0 0 0 0 0 0 0 0 0 0 0 0 0 0 0 0 0 0 0 0 0
0 0 0 0 0 0 0 0 0 0 0 0 0 0 0 0 0 0 0 0 0 0 0 0 0 0 0 0 0 0 0 0 0 0 0 0 0 0 0 0 0 0 0
0 0 0 0 0 0 0 0 0 0 0 0 0 0 0 0 0 0 0 0 0 0 0 0 0 0 0 0 0 0 0 0 1 0 0 0 0 0 0 0 0 0 0
0 0 0 0 0 0 0 0 0 0 0 0 0 0 0 0 0 0 0 0 0 0 0 0 0 0 0 0 0 0 0 0 0 0 0 0 0 0 0 0 0 0 0
0 0 0 0 0 0 0 0 0 0 0 0 0 0 0 0 0 0 0 0 0 0 0 0 0 0 0 0 0 0 0 0 0 0 0 0 0 0 0 0 0 0 0
0 0 0 0 0 0 0 0 0 0 0 0 0 0 0 0 0 0 0 0 0 0 0 0 0 0 0 0 0 0 0 0 0 0 0 0 0 0 0 0 0 0 0
0 0 0 0 0 0 0 0 0 0 0 0 0 0 0 0 0 0 0 0 0 0 0 0 0 0 0 0 0 0 0 0 0 0 0 0 0 0 0 0 0 0 0
0 0 0 0 0 0 0 0 0 0 0 0 0 0 0 0 0 0 0 0 0 0 0 0 0 0 0 0 0 0 0 0 0 0 0 0 0 0 0 0 0 0 0
0 0 0 0 0 0 0 0 0 0 0 0 0 0 0 0 0 0 0 0 0 0 0 0 0 0 0 0 0 0 0 0 0 0 0 0 0 0 0 0 0 0 0
0 0 0 0 0 0 0 0 0 0 0 0 0 0 0 0 0 0 0 0 0 0 0 0 0 0 0 0 0 0 0 0 0 0 0 0 0 0 0 0 0 0 0
0 0 0 0 0 0 0 0 0 0 0 0 0 0 0 0 0 0 0 0 0 0 0 0 0 0 0 0 0 0 0 0 0 0 0 0 0 0 0 0 0 0 0
0 0 0 0 0 0 0 0 0 0 0 0 0 0 0 0 0 0 0 0 0 0 0 0 0 0 0 0 0 0 0 0 0 0 0 0 0 0 0 0 0 0 0
0 0 0 0 0 0 0 0 0 0 0 0 0 0 0 0 0 0 0 0 0 0 0 0 0 0 0 0 0 0 0 0 0 0 0 0 0 0 0 0 0 0 0
0 0 0 0 0 0 0 0 0 0 0 0 0 0 0 0 0 0 0 0 0 0 0 0 0 0 0 0 0 0 0 0 0 0 0 0 0 0 0 0 0 0 0
0 0 0 0 0 0 0 0 0 0 0 0 0 0 0 0 0 0 0 0 0 0 0 0 0 0 0 0 0 0 0 0 0 0 0 0 0 0 0 0 0 0 0
0 0 0 0 0 0 0 0 0 0 0 0 0 0 0 0 0 0 0 0 0 0 0 0 0 0 0 0 0 0 0 0 0 0 0 0 0 0 0 0 0 0 0
0 0 0 0 0 0 0 0 0 0 0 0 0 0 0 0 0 0 0 0 0 0 0 0 0 0 0 0 0 0 0 0 0 0 0 0 0 0 0 0 0 0 0
0 0 0 0 0 0 0 0 0 0 0 0 0 0 0 0 0 0 0 0 0 0 0 0 0 0 0 0 0 0 0 0 0 0 0 0 0 0 0 0 0 0 0
0 0 0 0 0 0 0 0 0 0 0 0 0 0 0 0 0 0 0 0 0 0 0 0 0 0 0 0 0 0 0 0 0 0 0 0 0 0 0 0 0 0 0
0 0 0 0 0 0 0 0 0 0 0 0 0 0 0 0 0 0 0 0 0 0 0 0 0 0 0 0 0 0 0 0 0 0 0 0 0 0 0 0 0 0 0
0 0 0 0 0 0 0 0 0 0 0 0 0 0 0 0 0 0 0 0 0 0 0 0 0 0 0 0 0 0 0 0 0 0 0 0 0 0 0 0 0 0 0
0 0 0 0 0 0 0 0 0 0 0 0 0 0 0 0 0 0 0 0 0 0 0 0 0 0 0 0 0 0 0 0 0 0 0 0 0 0 0 0 0 0 0
Wind_Speed
1 1 0 0 0 0 0 1 1 1 2 2 2 2 2 3 3 3 3 6 7 8 9 9 9 9 9 9 8 7 7 7 7 8 8 8 8 8 8 8 9 9 10
2 1 1 1 1 1 1 1 1 1 2 2 2 3 3 3 3 3 3 4 7 8 9 10 10 10 10 10 9 8 8 8 8 8 9 9 9 9 9 10 10 10 10
2 2 1 1 1 1 1 1 1 1 2 2 3 3 3 3 3 3 3 3 4 7 9 10 10 11 11 10 10 9 9 9 9 9 9 10 9 9 10 10 11 11 11
2 2 2 1 1 1 0 1 1 1 2 2 2 3 3 3 4 4 3 3 3 4 6 9 10 12 12 11 10 10 10 9 9 10 10 10 10 11 11 11 11 11 12
2 2 2 2 1 1 1 1 1 1 2 2 3 3 3 3 3 4 4 4 3 4 3 6 9 10 11 11 11 11 11 11 10 11 11 11 11 11 12 12 12 13 13
2 1 1 2 1 1 1 1 1 1 2 2 3 4 3 4 3 3 4 3 3 4 4 4 4 6 9 11 11 12 12 12 11 11 11 11 12 12 12 13 13 13 13
2 2 1 2 2 2 2 2 1 1 2 1 1 3 4 3 3 3 3 3 3 4 3 4 3 3 4 8 10 12 13 13 12 11 11 11 11 12 13 14 13 13 14
2 2 2 2 2 2 2 2 1 1 1 1 0 2 3 4 3 3 2 2 3 2 3 4 3 3 3 3 6 10 12 12 12 11 10 10 11 13 13 14 14 13 14
2 2 2 2 2 2 2 3 2 2 2 1 1 1 1 3 4 3 2 2 2 2 3 3 3 4 3 3 4 7 9 10 11 10 10 11 12 13 13 14 14 13 13
2 2 2 2 2 2 3 3 2 2 2 2 1 1 2 2 2 3 3 2 2 3 3 3 3 3 3 3 4 6 7 8 10 10 11 11 12 13 14 14 14 14 14
2 2 2 2 2 2 3 3 2 2 2 3 2 2 2 2 3 2 4 4 3 2 2 3 3 3 3 3 2 4 6 8 10 10 11 11 12 13 14 14 14 15 14
2 2 2 2 2 3 3 3 3 3 3 3 3 2 2 2 2 2 3 4 4 3 3 2 2 2 2 2 3 6 7 8 9 9 10 11 12 13 14 15 14 14 14
2 3 2 2 2 3 3 3 3 3 3 3 3 3 3 3 2 2 2 3 4 4 3 2 2 2 2 2 3 6 7 8 8 8 9 10 11 13 14 13 14 14 14
2 2 2 2 2 3 2 2 2 3 3 3 3 3 2 2 2 2 2 2 4 3 3 3 2 2 2 2 4 7 5 8 7 8 8 9 11 11 11 12 12 13 14
2 2 2 2 2 2 2 2 2 3 3 3 3 3 2 2 2 2 2 2 2 4 5 3 2 3 3 3 5 4 4 7 9 8 9 9 9 10 10 10 11 12 12
2 2 2 2 2 2 2 2 2 2 2 2 2 3 3 2 2 2 2 2 2 2 4 3 3 3 4 4 6 4 4 8 9 9 9 9 9 9 9 9 10 10 11
2 2 2 2 2 2 2 2 2 2 2 2 2 2 3 2 2 2 1 1 1 1 3 4 3 3 4 4 4 4 3 4 4 8 9 9 9 8 9 9 10 10 11
1 1 2 2 2 2 2 2 2 2 2 2 2 2 2 2 2 2 1 1 1 1 2 4 4 3 4 4 4 4 4 4 4 8 9 9 10 9 9 10 10 10 10
1 1 1 1 1 2 2 2 2 2 2 2 2 2 2 1 2 1 1 1 1 1 1 2 3 3 3 3 4 4 4 3 5 7 8 9 10 11 11 12 11 10 10
1 1 1 1 1 1 2 2 1 1 1 1 1 1 2 2 2 1 1 1 1 0 1 1 2 3 3 3 3 4 4 4 4 5 7 8 10 11 12 13 12 11 11
1 1 1 1 1 1 1 1 1 1 1 1 1 1 1 1 2 1 1 1 0 0 1 1 2 2 3 3 3 3 4 4 4 4 4 5 6 5 6 10 11 12 12
1 0 1 1 1 1 2 1 1 0 1 1 1 1 1 1 2 2 2 2 1 1 1 1 2 2 3 3 3 3 3 4 4 4 4 5 4 5 5 5 11 13 13
0 0 1 1 1 2 2 1 1 0 0 1 1 1 2 2 2 1 2 3 3 4 3 1 1 2 3 3 2 3 3 3 3 4 4 4 4 4 5 7 13 14 14
1 1 1 1 1 2 2 2 1 0 0 0 0 0 0 1 1 2 2 2 3 4 4 2 1 2 2 2 2 2 2 2 2 3 3 3 4 4 5 5 11 13 14
1 1 0 1 1 2 2 2 2 0 1 1 1 1 1 1 2 3 3 3 3 4 6 7 6 6 6 6 5 3 3 3 3 3 3 2 3 5 4 4 7 12 14
0 1 1 1 1 1 2 2 2 1 1 1 1 1 2 2 3 3 2 2 2 2 3 4 6 7 6 6 8 4 2 2 2 3 3 3 3 4 4 3 4 5 7
Wind_Direction
162 165 189 215 250 259 254 303 316 316 309 300 295 295 288 284 284 279 288 294 294 286 281 279 274 269 267 262 257 257 258 260 263 265 265 266 268 267 269 271 273 275 275
169 169 183 224 256 244 242 251 277 298 295 292 290 283 276 274 272 273 276 288 294 290 284 284 281 273 270 267 262 259 259 260 262 266 267 266 267 268 269 270 272 273 275
175 174 187 216 239 249 277 295 306 307 303 307 299 289 280 274 270 269 270 270 279 288 288 286 287 281 273 272 267 264 260 260 262 263 268 268 268 271 272 273 273 274 275
179 174 187 217 229 217 219 258 270 291 292 292 289 283 280 271 268 269 265 262 262 271 282 287 287 286 279 277 274 270 267 264 264 266 267 268 270 270 271 273 274 273 274
182 177 196 215 207 196 219 259 286 267 282 293 286 279 275 272 271 275 269 265 260 259 262 281 287 289 289 285 282 276 273 268 267 268 270 269 270 272 271 272 274 274 273
193 186 205 217 198 195 230 232 258 275 261 274 294 298 285 276 269 262 262 266 265 265 264 270 276 284 291 288 286 281 278 272 270 271 273 273 272 273 274 271 271 272 274
202 195 212 217 209 207 223 227 239 271 280 291 319 313 300 279 267 267 262 265 267 267 262 263 263 262 278 287 288 283 287 280 277 276 275 276 277 278 278 276 272 273 275
209 206 208 218 218 215 232 237 232 245 277 286 261 327 320 319 307 281 276 272 277 279 279 278 277 272 272 267 280 288 290 285 281 280 281 284 285 283 280 281 278 275 277
220 216 216 221 224 208 220 232 225 214 241 268 211 194 257 276 308 301 292 290 293 295 293 290 281 273 274 274 274 282 288 288 285 284 286 286 285 285 284 281 280 275 277
235 228 223 222 220 218 227 234 233 233 212 243 265 242 235 241 268 302 311 309 306 299 292 293 291 281 277 279 281 290 293 291 288 287 290 289 289 288 288 288 288 282 278
250 245 237 231 228 227 230 233 239 240 223 224 232 250 262 267 242 257 294 311 315 302 293 286 290 290 288 285 283 282 296 296 289 289 291 294 294 294 292 291 289 288 283
262 262 260 245 238 232 231 232 231 233 237 235 234 230 234 244 256 248 275 299 305 309 305 296 292 295 299 295 293 310 307 301 298 298 297 297 296 296 296 293 293 292 288
267 258 266 255 248 243 238 232 232 239 240 239 235 236 236 241 244 250 267 292 302 306 309 313 299 300 316 318 317 322 317 310 309 308 305 303 299 297 296 296 297 296 294
242 245 252 254 249 243 244 235 239 245 247 247 248 244 248 249 242 241 245 278 304 310 319 306 320 319 321 324 322 328 326 317 321 321 316 313 309 305 300 297 297 299 299
246 246 247 257 259 247 244 243 246 248 250 250 246 245 248 250 246 249 244 234 242 294 307 313 323 324 326 321 323 331 320 321 324 328 327 321 316 317 310 304 300 299 301
243 237 247 255 264 262 259 252 267 260 252 259 249 249 253 258 254 252 244 247 232 237 282 306 308 314 319 325 330 334 324 331 332 329 328 329 331 325 323 317 310 310 310
247 234 241 250 259 271 273 258 258 261 257 270 274 257 260 259 251 259 254 251 247 224 267 301 313 321 326 326 326 330 326 325 328 333 334 333 333 335 339 331 324 318 314
244 246 248 249 260 272 272 262 259 262 254 262 270 271 270 271 261 259 247 252 255 243 241 286 308 319 321 318 321 330 333 335 337 335 338 340 343 344 345 339 329 323 321
259 270 260 253 267 275 273 267 258 260 262 260 259 260 266 256 265 273 264 262 263 280 261 258 296 312 314 325 330 331 335 339 341 341 343 348 349 347 346 345 340 333 330
237 255 263 270 268 271 275 274 269 274 284 284 271 255 251 239 242 248 254 258 259 289 296 279 304 314 321 324 330 332 335 344 341 343 350 353 354 353 349 346 349 350 345
244 246 257 287 294 269 281 303 279 292 296 323 326 300 281 292 299 300 302 279 244 258 281 287 303 318 323 329 328 324 322 326 336 344 338 348 348 348 347 345 350 352 351
269 261 253 276 302 301 330 334 2 342 336 341 329 333 331 331 341 344 355 0 6 332 286 295 301 307 309 313 318 324 325 337 337 345 346 336 345 341 341 345 354 357 356
228 249 270 288 283 305 338 344 14 67 21 317 324 343 347 352 358 15 25 22 12 1 346 305 301 306 306 308 317 329 332 333 318 326 334 321 336 335 336 345 353 357 358
221 225 257 272 271 305 340 336 347 99 97 341 318 330 7 6 13 52 66 39 18 13 5 7 353 325 328 332 323 311 313 324 314 330 342 323 329 328 331 335 347 353 356
184 195 245 264 283 312 343 3 40 97 64 7 0 41 47 53 34 56 71 59 35 21 22 31 30 29 25 18 12 14 2 359 334 329 351 340 325 322 320 328 340 349 353
144 146 45 7 327 313 353 26 47 94 79 31 27 23 26 37 49 54 74 83 60 15 23 25 26 23 23 18 15 16 357 346 328 322 340 342 323 331 326 321 331 340 344